#timestamp,LO_Frequency,Hit,StdDev 
1594414815.2,286047000.8,N
1594414835.0,286046998.7,N
1594414835.9,286046998.7,N
1594414855.8,286046998.7,N
1594414875.6,286047000.8,N
1594414895.5,286046999.0,N
1594414915.3,286046996.5,Y
1594414935.1,286046999.4,P
1594414955.9,286046998.7,P
1594414975.7,286046999.0,N
1594414995.6,286046998.8,N
1594415015.4,286046996.6,Y
1594415035.2,286046998.4,P
1594415055.1,286046999.5,N
1594415056.0,286046999.5,N
1594415075.8,286046998.9,N
1594415095.7,286046998.6,Y
1594415115.5,286047000.2,P
1594415135.3,286047000.5,N
1594415155.2,286046999.9,N
1594415175.0,286047001.9,Y
1594415175.9,286047001.9,P
1594415195.8,286047002.0,N
1594415215.6,286047001.7,N
1594415235.4,286047002.2,N
1594415255.3,286047000.1,N
1594415275.1,286046999.7,N
1594415295.8,286047002.4,N
1594415315.7,286047002.2,N
1594415335.5,286047001.3,N
1594415355.4,286047002.5,N
1594415375.2,286047002.2,N
1594415395.0,286047004.2,Y
1594415395.9,286047004.2,P
1594415415.8,286046999.9,N
1594415435.6,286047000.4,N
1594415455.5,286047000.3,N
1594415475.3,286046999.8,N
1594415495.1,286047001.0,N
1594415515.9,286046999.7,N
1594415535.7,286047000.0,N
1594415555.5,286047000.5,N
1594415575.4,286047001.0,N
1594415595.2,286047001.2,N
1594415615.1,286046998.2,N
1594415616.0,286046998.2,N
1594415635.8,286046998.2,N
1594415655.7,286046998.1,N
1594415705.5,286046998.6,E
1594415715.4,286047001.0,N
1594415735.3,286047000.1,P
1594415755.1,286047000.1,N
1594415775.9,286047002.6,Y
1594415795.7,286047003.6,P
1594415815.5,286047004.4,N
1594415835.4,286047002.9,N
1594415855.2,286047003.2,N
1594415875.1,286047005.0,Y
1594415876.0,286047005.0,P
1594415895.8,286047002.7,N
1594415915.6,286047002.7,N
1594415935.5,286047000.9,N
1594415955.3,286046999.8,N
1594415975.2,286047002.0,N
1594415995.9,286047001.0,N
1594416015.7,286046997.1,N
1594416035.6,286046997.4,N
1594416055.4,286046997.9,N
1594416075.2,286047000.8,N
1594416095.1,286046998.2,N
1594416096.0,286046998.2,N
1594416115.8,286047000.7,N
1594416135.7,286046998.3,N
1594416155.5,286047000.6,N
1594416175.3,286047001.2,N
1594416195.2,286046998.6,N
1594416215.0,286047000.8,N
1594416215.9,286047000.8,N
1594416235.8,286047000.0,N
1594416255.6,286047002.3,N
1594416275.4,286047001.1,N
1594416295.3,286046998.7,N
1594416315.1,286047001.2,N
1594416335.8,286047001.0,N
1594416355.7,286046996.7,N
1594416375.5,286046997.1,N
1594416395.4,286046996.6,N
1594416415.2,286046995.3,N
1594416435.0,286046996.0,N
1594416435.9,286046996.0,N
1594416455.8,286046997.6,N
1594416475.6,286046997.9,N
1594416495.5,286046997.5,N
1594416515.3,286046997.5,N
1594416535.1,286046997.7,N
1594416555.9,286046999.6,N
1594416575.7,286046998.8,N
1594416595.5,286046999.2,N
1594416615.4,286046999.1,N
1594416635.2,286046996.5,N
1594416655.1,286046998.2,N
1594416656.0,286046998.2,N
1594416675.8,286047000.4,N
1594416695.6,286046999.4,N
1594416715.5,286046996.8,N
1594416735.3,286046994.9,N
1594416755.2,286046997.8,N
1594416775.9,286046999.1,N
1594416795.7,286046996.8,N
1594416815.6,286046999.0,N
1594416835.4,286046999.6,N
1594416855.2,286046999.2,N
1594416875.1,286046999.2,N
1594416876.0,286046999.2,N
1594416895.8,286046997.0,N
1594416915.7,286046997.7,N
1594416935.5,286046996.8,N
1594416955.3,286046997.0,N
1594416975.2,286046996.7,N
1594416995.0,286046999.4,N
1594416995.9,286046999.4,N
1594417015.8,286046996.9,N
1594417035.6,286046999.6,N
1594417055.4,286046996.6,N
1594417075.3,286046999.5,N
1594417095.1,286046999.4,N
1594417115.9,286046999.2,N
1594417135.7,286046999.2,N
1594417155.5,286046999.6,N
1594417175.4,286046999.2,N
1594417195.2,286046999.5,N
1594417215.1,286046999.2,N
1594417216.0,286046999.2,N
1594417235.8,286046999.2,N
1594417255.6,286046999.6,N
1594417275.5,286046998.4,N
1594417295.3,286046998.4,N
1594417315.2,286047001.2,N
1594417335.9,286046998.7,N
1594417355.7,286046998.5,N
1594417375.6,286046998.4,N
1594417395.4,286046998.6,N
1594417415.2,286046998.3,N
1594417435.1,286046998.4,N
1594417436.0,286046998.4,N
1594417455.8,286046999.4,N
1594417475.7,286046999.2,N
1594417495.5,286046998.4,N
1594417515.3,286046998.9,N
1594417535.2,286046999.2,N
1594417555.0,286046998.1,N
1594417555.9,286046998.1,N
1594417575.8,286047000.8,N
1594417595.6,286047001.2,N
1594417615.4,286046998.7,N
1594417635.3,286046998.8,N
1594417655.1,286046998.5,N
1594417675.9,286046998.8,N
1594417695.7,286047000.5,N
1594417715.5,286047001.1,N
1594417735.4,286046998.7,N
1594417755.2,286046998.4,N
1594417775.0,286047000.8,N
1594417775.9,286047000.8,N
1594417795.8,286046998.6,N
1594417815.6,286046998.4,N
1594417835.5,286046999.9,N
1594417855.3,286047001.1,N
1594417875.1,286047001.2,N
1594417895.9,286047001.0,N
1594417915.7,286046998.8,N
1594417935.6,286046998.6,N
1594417955.4,286047001.0,N
1594417975.2,286046998.5,N
1594417995.1,286047001.1,N
1594417996.0,286047001.1,N
1594418015.8,286046998.5,N
1594418035.6,286046998.2,N
1594418055.5,286047001.0,N
1594418075.3,286046998.6,N
1594418095.2,286046999.3,N
1594418115.9,286046998.1,N
1594418135.7,286046998.1,N
1594418155.6,286046998.5,N
1594418175.4,286046998.8,N
1594418195.2,286046998.2,N
1594418215.1,286046998.6,N
1594418216.0,286046998.6,N
1594418235.8,286047001.2,N
1594418255.7,286046998.3,N
1594418275.5,286046998.1,N
1594418295.4,286047001.2,N
1594418315.2,286046999.0,N
1594418335.0,286046999.1,N
1594418335.9,286046999.1,N
1594418355.8,286046999.5,N
1594418375.6,286046998.7,N
1594418395.4,286046999.1,N
